Flag Weather past 2 weeks in Burnaby, British Columbia, Canada

Now
46 °F

Partly sunny.


Feels Like: 42 °F
Forecast: 40 / 46 °F
Wind: 9 mph from West

Location: Vancouver International Air-Port

Current Time: Nov 22, 2014 at 5:09:34 PM

Latest Report: Nov 22, 2014 at 4:00 PM


Visibility: 30 mi

Pressure: 29.90 "Hg

Humidity: 87%

Dew point: 43 °F

Location of BurnabyLocation

Historic Weather in Burnaby — Graph

°F

Burnaby temperature yesterday

Maximum temperature yesterday: 50 °F (at 9:00 AM)
Minimum temperature yesterday: 46 °F (at 7:00 PM)
Average temperature yesterday: 48 °F

Past Weeks' High & Low Weather Summary

 TemperatureHumidityPressure
High52 °F (Nov 7, 3:00 PM)100% (Nov 7, 9:00 PM)30.57 "Hg (Nov 7, 9:00 PM)
Low23 °F (Nov 14, 6:00 AM)25% (Nov 11, 12:00 PM)29.26 "Hg (Nov 21, 7:00 PM)
Average40 °F79%30.13 "Hg
* Reported Nov 7 3:00 PM — Nov 22 3:00 PM, Burnaby, Weather by CustomWeather, © 2014

Note: Actual official high and low records may vary slightly from our data, if they occured in-between our weather recording intervals... More about our weather records

Advertising

Burnaby weather history for previous 24 hours

 ConditionsComfort  
Time TempWeatherWind HumidityBarometerVisibility
3:00 PM
Nov 22
48 °FPartly sunny.7 mph82%29.88 "Hg30 mi
2:00 PM48 °FScattered clouds.8 mph82%29.84 "Hg30 mi
1:00 PM48 °FScattered clouds.8 mph82%29.81 "Hg30 mi
12:00 PM50 °FBroken clouds.3 mph76%29.78 "Hg25 mi
11:00 AM50 °FBroken clouds.2 mph71%29.75 "Hg25 mi
10:00 AM48 °FScattered clouds.6 mph82%29.71 "Hg25 mi
9:00 AM45 °FPartly sunny.3 mph87%29.69 "Hg20 mi
8:00 AM43 °FBroken clouds.3 mph93%29.65 "Hg15 mi
7:00 AM45 °FSprinkles. Partly cloudy.6 mph87%29.63 "Hg12 mi
6:00 AM43 °FMostly cloudy.7 mph93%29.62 "Hg15 mi
5:00 AM45 °FOvercast.5 mph87%29.60 "Hg15 mi
4:00 AM46 °FPassing clouds.5 mph87%29.57 "Hg15 mi
3:00 AM45 °FPassing clouds.12 mph93%29.54 "Hg15 mi
2:00 AM46 °FPassing clouds.13 mph82%29.50 "Hg15 mi
1:00 AM46 °FPartly cloudy.18 mph82%29.46 "Hg15 mi
12:00 AM46 °FPassing clouds.18 mph87%29.42 "Hg15 mi
11:00 PM
Nov 21
48 °FMostly cloudy.23 mph82%29.37 "Hg15 mi
10:00 PM46 °FLight rain. Mostly cloudy.21 mph93%29.32 "Hg15 mi
9:00 PM46 °FPassing clouds.5 mph100%29.27 "Hg15 mi
8:00 PM46 °FOvercast.10 mph100%29.26 "Hg15 mi
7:00 PM46 °FLight rain. Fog.12 mph100%29.26 "Hg6 mi
6:00 PM48 °FLight rain. Overcast.13 mph94%29.27 "Hg15 mi
5:00 PM48 °FRain. Mostly cloudy.14 mph94%29.30 "Hg7 mi
Weather by CustomWeather, © 2014

See weather overviewHow to use our weather pages